Simultaneous Nadir Overpasses (SNOs) Predictions

Prediction of SNOs between GOES-15 and METOP-C Satellite Orbit:

Table of predicted SNOs for the next 14.0 days since TLE Epoch: 2/14/2025
Index Date Time (GOES-15) GOES-15 Lat,Lon METOP-C Lat,Lon Distance(km) Time Diff (sec)
1 02/15/2025 05:27:12 0.00, 61.48 0.18, 60.66 93.79 80
2 02/16/2025 05:09:12 0.01, 61.47 -0.90, 65.66 477.09 80
3 02/17/2025 17:28:12 -0.00, 61.44 -0.09, 61.06 43.07 80
4 02/20/2025 05:26:22 -0.00, 61.45 0.01, 61.50 6.17 80
5 02/22/2025 17:22:02 0.01, 61.41 0.11, 61.90 55.28 80
6 02/24/2025 05:40:52 -0.01, 61.45 0.88, 57.34 468.09 80
7 02/25/2025 05:22:51 -0.01, 61.45 -0.22, 62.34 101.60 80
8 02/26/2025 17:41:51 0.02, 61.41 -0.80, 57.75 418.02 80
9 02/27/2025 17:18:30 0.01, 61.42 0.31, 62.74 150.87 80
